Dean International
Flight School

Career Spotlight

Mika

Mika

Congratulations to Mika from Khazakstan. She recently sent us this photo of her flying an Airbus airliner.

More...
Mika's Success Story
close

Congratulations to Mika from Khazakstan. She recently sent us this photo of her flying an Airbus airliner.

Mario

Mario

My dreams could not have been realized if I wouldn't have been part of the Dean International family.

More...
Mario's Success Story
close

"My dreams could not have been realized if I wouldn't have been part of the Dean International family. Thank you Robert, thanks to all my co-workers, and thanks to all of my students!"

Fernando

Fernando

I am now working as a First Officer at TACA and am enjoying every moment of it.

More...
Fernando's Success Story
close

"Will never forget my time of flight training at Dean International. I am now working as a First Officer at TACA and am enjoying every moment of it."

Alvaro

Alvaro

Because of the flight time I was able to built while instructing, I got the experience needed to apply to an airline in Colombia.

More...
Alvaro's Success Story
close

Dean alumnus Alvaro Londoño currently flies with Tampa Cargo. He says of his experience at Dean: "I want to take this opportunity to thank you for giving me the chance to build my experience and expand my knowledge in Dean International. Because of the flight time I was able to built flight instructing, I got the experience needed to apply to an airline in Colombia."

Ralph

Ralph

Every Aruban student of Dean International has made it into Tiara Air Aruba, that is very nice.

More...
Ralph's Success Story
close

"Next to me is my Co-Pilot, Elison. This picture was taken on our first flight together, which was almost exactly 5 years after I finished at Dean International. [...] Every Aruban student of Dean International has made it into Tiara Air Aruba. [...] The future looks bright here in Aruba."

Rohaan

Rohaan

The [..] staff will all work diligently to help you finish your certificates as safely and efficiently as possible.

More...
Rohaan's Success Story
close

After receiving very hard times from other flight schools [...], I came to Dean International where Robert Dean personally sat down with me and gave me a financial and chronological look into how much remained to finish my private pilot certificate. Through his hard efforts as an instructor and mentor, I was able to finish my private pilot certificate within one week.

Welcome to Dean International

In over two decades, Dean International has educated over 7,000 pilots from all over the world, including over 1,000 students from India alone. By offering a great training experience, a friendly service staff, an ample variety of aircraft, and by improving constantly, we have become one of the largest, most prestigious FAA 141-approved flight schools in North America. Located in Miami, Florida, USA, our flight school offers an ideal location for year-round, "learn to fly" weather, flight training. Dean International is not only well-equipped to provide services to professional trainees but also caters to General Aviation renters. Visit or contact our headquarters at Kendall-Tamiami Executive Airport located in Miami, FL today to learn more about us, or simply read more about our programs if you are an international student interested in joining our school.

Local Airport Information
TAF FOR KTMB (Issued: Tue, July 19th 2016 3:03 PM UTC)
TAF
      AMD KTMB 191500Z 1915/2012 10015G25KT P6SM VCSH SCT030 SCT200
      FM191800 10015G24KT P6SM VCSH SCT030 SCT060 SCT250
      FM200000 08005KT P6SM SCT050 SCT250
     
METAR FOR KTMB (Issued: Sun, July 24th 2016 3:53 AM UTC):
KTMB 240353Z AUTO 00000KT 10SM FEW045 SCT085 23/22 A3006 RMK AO2 RAE52 SLP178 P0002 T02330217 TSNO

This weather information is provided by the National Weather Service.
It is automatically refreshed every three minutes.
TAF FOR KHST (Issued: Tue, July 19th 2016 4:06 PM UTC)
TAF KHST 191600Z 1916/2022 06010G15KT 9999 FEW050 QNH3004INS
      BECMG 1918/1919 07015G20KT 9999 VCTS SCT030 BKN050CB QNH3006INS
      TEMPO 1919/2002 8000 -TSRA BKN030CB
      BECMG 2002/2003 10009KT 9999 NSW FEW030 BKN080 QNH3006INS
      BECMG 2014/2015 11010G15KT 9999 FEW030 QNH3008INS
      TEMPO 2019/2022 8000 -TSRA BKN030CB TX34/1920Z TN26/2010Z
     
METAR FOR KHST (Issued: Sun, July 24th 2016 4:40 AM UTC):
KHST 240440Z AUTO 04002KT 10SM -DZ FEW160 25/24 A3004 RMK AO2 RAE19DZB19E31DZB40

This weather information is provided by the National Weather Service.
It is automatically refreshed every three minutes.
TAF FOR KOPF (Issued: Tue, July 19th 2016 3:03 PM UTC)
TAF
      AMD KOPF 191500Z 1915/2012 10011G21KT P6SM VCSH FEW040 SCT200
      FM191800 10015G24KT P6SM VCSH SCT030 SCT060 SCT250
      FM200000 08006KT P6SM SCT050 SCT250
     
METAR FOR KOPF (Issued: Sun, July 24th 2016 4:24 AM UTC):
KOPF 240424Z AUTO 00000KT 10SM FEW031 SCT090 BKN110 27/22 A3005 RMK AO2 LTG DSNT NE T02670222

This weather information is provided by the National Weather Service.
It is automatically refreshed every three minutes.
TAF FOR KMIA (Issued: Tue, July 19th 2016 3:06 PM UTC)
TAF
      AMD KMIA 191500Z 1915/2012 07012KT P6SM VCSH SCT035 SCT200
      FM191800 08015G24KT P6SM VCSH SCT030 SCT060 SCT250
      FM200000 08007KT P6SM SCT050 SCT250
     
METAR FOR KMIA (Issued: Sun, July 24th 2016 3:53 AM UTC):
KMIA 240353Z 34003KT 10SM FEW025 FEW055 SCT100 OVC200 25/22 A3006 RMK AO2 RAB16E51 SLP181 OCNL LTGIC DSNT N CB DSNT N P0000 T02500222

This weather information is provided by the National Weather Service.
It is automatically refreshed every three minutes.
Design by Ariel Llizo
© Dean International Inc. 2012